�������l�o���
Date,Time,MP-1(��Sv/h),MP-2(��Sv/h),MP-3(��Sv/h),MP-4(��Sv/h),MP-5(��Sv/h),MP-6(��Sv/h),MP-7(��Sv/h),MP-8(��Sv/h),����,����(m/s),���J
2018/01/03,00:00,0.898,1.498,0.942,1.781,1.200,0.494,0.885,0.848,�k��,6.6,��
2018/01/03,00:10,0.898,1.502,0.943,1.781,1.198,0.495,0.883,0.847,�k��,7.5,��
2018/01/03,00:20,0.898,1.501,0.942,1.781,1.199,0.495,0.883,0.847,�k�k��,7.3,��
2018/01/03,00:30,0.900,1.500,0.941,1.781,1.200,0.495,0.883,0.847,�k�k��,6.7,��
2018/01/03,00:40,0.899,1.501,0.943,1.781,1.199,0.494,0.885,0.847,�k��,7.9,��
2018/01/03,00:50,0.900,1.502,0.941,1.784,1.200,0.495,0.882,0.847,�k��,7.7,��
2018/01/03,01:00,0.900,1.498,0.943,1.781,1.199,0.496,0.882,0.848,���k��,7.4,��
2018/01/03,01:10,0.898,1.499,0.942,1.780,1.199,0.496,0.883,0.847,�k��,6.3,��
2018/01/03,01:20,0.900,1.499,0.943,1.782,1.200,0.496,0.885,0.847,�k�k��,7.3,��
2018/01/03,01:30,0.899,1.501,0.941,1.780,1.201,0.496,0.884,0.849,�k��,7.5,��
2018/01/03,01:40,0.899,1.501,0.941,1.782,1.199,0.495,0.884,0.846,�k��,5.1,��
2018/01/03,01:50,0.900,1.497,0.942,1.781,1.199,0.495,0.884,0.848,�k��,4.0,��
2018/01/03,02:00,0.900,1.499,0.944,1.780,1.200,0.495,0.882,0.847,�k��,6.1,��
2018/01/03,02:10,0.900,1.501,0.943,1.781,1.200,0.495,0.883,0.846,�k��,6.0,��
2018/01/03,02:20,0.900,1.495,0.941,1.782,1.198,0.495,0.884,0.847,�k��,6.7,��
2018/01/03,02:30,0.899,1.501,0.941,1.781,1.199,0.493,0.883,0.847,�k��,8.4,��
2018/01/03,02:40,0.900,1.500,0.941,1.781,1.200,0.495,0.885,0.845,�k��,8.5,��
2018/01/03,02:50,0.900,1.501,0.941,1.781,1.200,0.496,0.884,0.848,�k��,8.4,��
2018/01/03,03:00,0.901,1.503,0.942,1.781,1.201,0.495,0.883,0.846,�k��,6.8,��
2018/01/03,03:10,0.897,1.502,0.942,1.781,1.201,0.494,0.884,0.847,�k��,4.7,��
2018/01/03,03:20,0.900,1.499,0.942,1.782,1.201,0.494,0.883,0.846,�k��,4.2,��
2018/01/03,03:30,0.897,1.500,0.942,1.779,1.200,0.494,0.883,0.845,���k��,3.5,��
2018/01/03,03:40,0.898,1.501,0.941,1.778,1.201,0.497,0.882,0.846,���k��,1.5,�L
2018/01/03,03:50,0.900,1.500,0.942,1.780,1.200,0.496,0.882,0.848,���k��,2.6,��
2018/01/03,04:00,0.900,1.499,0.943,1.781,1.198,0.495,0.882,0.846,���k��,2.8,��
2018/01/03,04:10,0.896,1.500,0.942,1.779,1.198,0.494,0.882,0.846,��,2.2,��
2018/01/03,04:20,0.898,1.500,0.941,1.780,1.200,0.496,0.883,0.847,-,CALM,��
2018/01/03,04:30,0.898,1.502,0.941,1.783,1.199,0.493,0.883,0.847,-,CALM,��
2018/01/03,04:40,0.898,1.502,0.941,1.778,1.196,0.494,0.883,0.846,��,0.6,��
2018/01/03,04:50,0.899,1.499,0.942,1.777,1.197,0.496,0.884,0.846,�k��,1.2,��
2018/01/03,05:00,0.897,1.498,0.942,1.778,1.197,0.494,0.883,0.847,�k�k��,2.2,��
2018/01/03,05:10,0.897,1.499,0.939,1.779,1.198,0.493,0.882,0.847,�k�k��,2.8,��
2018/01/03,05:20,0.898,1.498,0.939,1.779,1.199,0.495,0.882,0.846,�k,3.4,��
2018/01/03,05:30,0.899,1.498,0.942,1.778,1.196,0.495,0.883,0.846,�k,3.8,��
2018/01/03,05:40,0.898,1.500,0.942,1.778,1.197,0.496,0.883,0.845,�k,5.4,��
2018/01/03,05:50,0.898,1.500,0.940,1.779,1.199,0.494,0.881,0.846,�k,5.7,��
2018/01/03,06:00,0.899,1.498,0.938,1.780,1.196,0.492,0.881,0.846,�k�k��,5.7,��
2018/01/03,06:10,0.898,1.500,0.939,1.779,1.199,0.492,0.882,0.846,�k�k��,6.4,��
2018/01/03,06:20,0.898,1.501,0.940,1.775,1.196,0.493,0.881,0.847,�k,6.3,��
2018/01/03,06:30,0.894,1.497,0.938,1.778,1.198,0.493,0.882,0.846,�k�k��,7.2,��
2018/01/03,06:40,0.894,1.499,0.938,1.781,1.198,0.492,0.882,0.846,�k�k��,6.7,��
2018/01/03,06:50,0.896,1.500,0.938,1.779,1.198,0.493,0.882,0.847,�k�k��,6.9,��
2018/01/03,07:00,0.896,1.498,0.940,1.777,1.197,0.491,0.880,0.848,�k��,6.5,��
2018/01/03,07:10,0.897,1.496,0.936,1.780,1.198,0.492,0.881,0.845,�k��,6.7,��
2018/01/03,07:20,0.895,1.500,0.936,1.776,1.197,0.490,0.882,0.846,�k��,6.0,��
2018/01/03,07:30,0.897,1.500,0.937,1.777,1.198,0.491,0.884,0.847,���k��,2.6,��
2018/01/03,07:40,0.895,1.500,0.938,1.778,1.197,0.493,0.883,0.846,�k,1.5,��
2018/01/03,07:50,0.897,1.498,0.939,1.777,1.200,0.492,0.882,0.846,�k�k��,1.7,��
2018/01/03,08:00,0.900,1.500,0.938,1.776,1.198,0.493,0.880,0.846,�k�k��,3.8,��
2018/01/03,08:10,0.899,1.498,0.940,1.777,1.196,0.493,0.882,0.846,�k,4.9,��
2018/01/03,08:20,0.899,1.497,0.941,1.777,1.198,0.490,0.884,0.845,�k�k��,3.5,��
2018/01/03,08:30,0.899,1.499,0.941,1.779,1.198,0.495,0.883,0.846,�k�k��,2.6,��
2018/01/03,08:40,0.898,1.500,0.941,1.780,1.197,0.494,0.881,0.846,�k��,3.1,��
2018/01/03,08:50,0.900,1.501,0.943,1.778,1.198,0.493,0.883,0.846,���k��,8.3,��
2018/01/03,09:00,0.900,1.504,0.942,1.781,1.199,0.495,0.883,0.847,���k��,7.8,��
2018/01/03,09:10,0.899,1.502,0.943,1.780,1.195,0.493,0.885,0.847,���k��,9.7,��
2018/01/03,09:20,0.900,1.502,0.943,1.781,1.197,0.493,0.885,0.848,��,8.6,��
2018/01/03,09:30,0.900,1.502,0.943,1.779,1.198,0.492,0.884,0.846,���k��,8.5,��
2018/01/03,09:40,0.901,1.502,0.942,1.784,1.199,0.493,0.885,0.848,��,10.4,��
2018/01/03,09:50,0.901,1.502,0.942,1.779,1.199,0.495,0.884,0.849,���k��,10.3,��
2018/01/03,10:00,0.903,1.502,0.942,1.781,1.198,0.494,0.883,0.849,���k��,11.1,��
2018/01/03,10:10,0.899,1.504,0.943,1.782,1.199,0.495,0.882,0.847,���k��,12.1,��
2018/01/03,10:20,0.902,1.500,0.944,1.782,1.198,0.497,0.881,0.849,���k��,14.1,��
2018/01/03,10:30,0.902,1.502,0.945,1.780,1.200,0.495,0.884,0.848,��,12.7,��
2018/01/03,10:40,0.901,1.504,0.944,1.781,1.199,0.496,0.885,0.848,���k��,13.1,��
2018/01/03,10:50,0.900,1.501,0.943,1.781,1.200,0.494,0.883,0.847,��,13.8,��
2018/01/03,11:00,0.903,1.502,0.942,1.780,1.201,0.495,0.884,0.848,��,12.7,��
2018/01/03,11:10,0.903,1.501,0.943,1.784,1.202,0.497,0.884,0.850,��,10.3,��
2018/01/03,11:20,0.904,1.503,0.945,1.783,1.202,0.496,0.886,0.849,��,11.7,��
2018/01/03,11:30,0.903,1.500,0.944,1.781,1.202,0.497,0.885,0.850,��,11.6,��
2018/01/03,11:40,0.904,1.500,0.946,1.781,1.203,0.497,0.886,0.851,��,12.2,��
2018/01/03,11:50,0.904,1.504,0.944,1.782,1.203,0.496,0.886,0.847,��,13.8,��
2018/01/03,12:00,0.902,1.501,0.944,1.785,1.200,0.497,0.886,0.849,���k��,13.0,��
2018/01/03,12:10,0.903,1.502,0.946,1.784,1.204,0.498,0.887,0.849,��,10.4,��
2018/01/03,12:20,0.904,1.501,0.944,1.783,1.205,0.498,0.888,0.849,���쐼,10.8,��
2018/01/03,12:30,0.902,1.498,0.943,1.783,1.201,0.498,0.885,0.849,��,11.3,��
2018/01/03,12:40,0.903,1.501,0.944,1.784,1.203,0.496,0.885,0.849,��,11.0,��
2018/01/03,12:50,0.905,1.502,0.944,1.783,1.201,0.497,0.886,0.848,��,11.3,��
2018/01/03,13:00,0.905,1.504,0.944,1.785,1.201,0.496,0.885,0.850,��,11.3,��
2018/01/03,13:10,0.903,1.505,0.943,1.784,1.202,0.496,0.884,0.850,��,16.1,��
2018/01/03,13:20,0.905,1.504,0.945,1.785,1.198,0.496,0.885,0.850,���k��,15.7,��
2018/01/03,13:30,0.903,1.503,0.945,1.787,1.202,0.498,0.887,0.849,��,13.5,�L
2018/01/03,13:40,0.905,1.504,0.946,1.787,1.204,0.497,0.888,0.850,��,16.0,�L
2018/01/03,13:50,0.906,1.505,0.948,1.788,1.202,0.500,0.887,0.850,��,13.8,�L
2018/01/03,14:00,0.907,1.507,0.949,1.789,1.205,0.499,0.885,0.850,��,13.8,�L
2018/01/03,14:10,0.905,1.504,0.947,1.785,1.204,0.500,0.883,0.850,���k��,10.9,��
2018/01/03,14:20,0.905,1.508,0.945,1.788,1.207,0.499,0.884,0.850,���k��,11.1,��
2018/01/03,14:30,0.905,1.506,0.945,1.790,1.205,0.497,0.886,0.849,���k��,13.0,��
2018/01/03,14:40,0.905,1.503,0.948,1.788,1.204,0.498,0.885,0.849,���k��,10.5,��
2018/01/03,14:50,0.905,1.508,0.947,1.784,1.206,0.499,0.887,0.849,�k��,10.3,��
2018/01/03,15:00,0.905,1.502,0.948,1.787,1.203,0.498,0.885,0.851,�k��,10.6,��
2018/01/03,15:10,0.906,1.506,0.949,1.786,1.206,0.496,0.886,0.849,�k��,11.0,��
2018/01/03,15:20,0.903,1.506,0.947,1.787,1.203,0.496,0.887,0.848,�k�k��,10.3,��
2018/01/03,15:30,0.904,1.504,0.947,1.787,1.204,0.497,0.885,0.848,�k��,11.1,��
2018/01/03,15:40,0.905,1.505,0.948,1.786,1.206,0.499,0.887,0.851,�k��,10.2,��
2018/01/03,15:50,0.904,1.504,0.947,1.784,1.203,0.497,0.886,0.849,�k��,11.7,��
2018/01/03,16:00,0.905,1.503,0.946,1.789,1.204,0.496,0.885,0.848,�k��,8.9,��
2018/01/03,16:10,0.903,1.504,0.945,1.785,1.204,0.498,0.886,0.849,�k��,11.0,��
2018/01/03,16:20,0.904,1.506,0.945,1.785,1.207,0.496,0.885,0.849,�k��,12.5,��
2018/01/03,16:30,0.903,1.504,0.945,1.784,1.204,0.496,0.883,0.851,���k��,11.4,��
2018/01/03,16:40,0.905,1.506,0.942,1.784,1.205,0.496,0.885,0.849,���k��,11.6,��
2018/01/03,16:50,0.904,1.505,0.944,1.785,1.203,0.496,0.884,0.847,���k��,11.6,��
2018/01/03,17:00,0.903,1.505,0.944,1.785,1.204,0.495,0.886,0.848,�k��,9.4,��
2018/01/03,17:10,0.903,1.503,0.944,1.786,1.203,0.496,0.885,0.850,�k��,10.5,��
2018/01/03,17:20,0.902,1.506,0.944,1.786,1.205,0.497,0.885,0.849,�k��,8.9,��
2018/01/03,17:30,0.903,1.504,0.944,1.786,1.203,0.496,0.884,0.850,�k��,9.3,��
2018/01/03,17:40,0.901,1.504,0.942,1.784,1.203,0.495,0.882,0.849,�k��,10.2,��
2018/01/03,17:50,0.902,1.506,0.943,1.788,1.203,0.495,0.884,0.848,�k��,8.1,��
2018/01/03,18:00,0.904,1.504,0.945,1.785,1.203,0.495,0.884,0.850,�k��,11.3,��
2018/01/03,18:10,0.903,1.501,0.943,1.787,1.204,0.496,0.883,0.849,�k��,10.2,��
2018/01/03,18:20,0.900,1.504,0.943,1.783,1.202,0.494,0.885,0.848,�k��,9.1,��
2018/01/03,18:30,0.903,1.504,0.944,1.785,1.201,0.496,0.884,0.847,�k��,9.1,��
2018/01/03,18:40,0.901,1.504,0.943,1.786,1.200,0.495,0.883,0.849,�k��,8.1,��
2018/01/03,18:50,0.903,1.505,0.944,1.784,1.202,0.496,0.884,0.848,�k��,10.5,��
2018/01/03,19:00,0.902,1.503,0.944,1.785,1.202,0.495,0.884,0.849,�k��,11.8,��
2018/01/03,19:10,0.902,1.502,0.943,1.782,1.203,0.496,0.882,0.848,�k��,11.7,��
2018/01/03,19:20,0.900,1.502,0.943,1.784,1.202,0.494,0.884,0.849,�k��,11.4,��
2018/01/03,19:30,0.902,1.501,0.943,1.782,1.203,0.495,0.884,0.848,�k��,12.8,��
2018/01/03,19:40,0.903,1.505,0.942,1.784,1.204,0.494,0.883,0.849,�k��,11.6,��
2018/01/03,19:50,0.903,1.505,0.943,1.786,1.205,0.493,0.883,0.848,�k��,10.8,��
2018/01/03,20:00,0.903,1.502,0.942,1.784,1.201,0.496,0.884,0.849,�k��,13.5,��
2018/01/03,20:10,0.901,1.504,0.943,1.783,1.202,0.495,0.882,0.846,�k��,11.1,��
2018/01/03,20:20,0.901,1.504,0.944,1.785,1.204,0.495,0.882,0.848,�k��,13.0,��
2018/01/03,20:30,0.901,1.503,0.943,1.783,1.204,0.495,0.885,0.849,�k��,9.7,��
2018/01/03,20:40,0.901,1.504,0.943,1.785,1.202,0.493,0.884,0.849,�k��,11.9,��
2018/01/03,20:50,0.899,1.505,0.944,1.786,1.201,0.495,0.885,0.849,���k��,10.2,��
2018/01/03,21:00,0.901,1.504,0.941,1.784,1.203,0.495,0.884,0.848,�k��,8.6,��
2018/01/03,21:10,0.900,1.502,0.942,1.784,1.203,0.496,0.882,0.849,�k��,12.1,��
2018/01/03,21:20,0.898,1.504,0.943,1.784,1.204,0.493,0.882,0.848,�k��,12.7,��
2018/01/03,21:30,0.901,1.504,0.945,1.782,1.203,0.495,0.883,0.849,�k��,10.5,��
2018/01/03,21:40,0.900,1.504,0.945,1.781,1.201,0.495,0.885,0.847,�k��,9.7,��
2018/01/03,21:50,0.899,1.501,0.944,1.783,1.201,0.493,0.883,0.848,���k��,8.6,��
2018/01/03,22:00,0.899,1.503,0.944,1.784,1.201,0.496,0.883,0.848,�k��,9.8,��
2018/01/03,22:10,0.901,1.503,0.943,1.783,1.202,0.494,0.884,0.847,���k��,9.4,��
2018/01/03,22:20,0.900,1.504,0.941,1.781,1.200,0.493,0.882,0.848,���k��,10.5,��
2018/01/03,22:30,0.901,1.503,0.943,1.784,1.201,0.494,0.885,0.847,���k��,11.7,��
2018/01/03,22:40,0.901,1.504,0.943,1.784,1.198,0.494,0.884,0.847,���k��,11.0,��
2018/01/03,22:50,0.899,1.503,0.944,1.782,1.201,0.493,0.882,0.847,���k��,12.2,��
2018/01/03,23:00,0.900,1.504,0.943,1.781,1.200,0.494,0.884,0.848,���k��,11.3,��
2018/01/03,23:10,0.901,1.501,0.942,1.785,1.202,0.493,0.883,0.847,���k��,12.4,��
2018/01/03,23:20,0.899,1.504,0.944,1.787,1.201,0.495,0.884,0.847,�k��,9.2,��
2018/01/03,23:30,0.900,1.505,0.945,1.783,1.203,0.494,0.884,0.847,�k��,8.0,��
2018/01/03,23:40,0.901,1.503,0.942,1.785,1.203,0.494,0.884,0.846,�k��,8.4,��
2018/01/03,23:50,0.900,1.501,0.943,1.786,1.204,0.494,0.884,0.847,�k��,8.1,��
